Weather History for KSGS - March, 2014

Change the Weather History Date:

Thursday, March 6, 2014

  Actual Average (KMSP) Record (KMSP)
Temperature  
Mean Temperature 22 °F 28 °F  
Max Temperature 30 °F 36 °F 69 °F (2000)
Min Temperature 13 °F 20 °F -16 °F (1890)
Degree Days  
Heating Degree Days 44 37  
Month to date heating degree days 227  
Since 1 July heating degree days 6017  
Cooling Degree Days 0 0  
Month to date cooling degree days 0  
Year to date cooling degree days 0  
Moisture  
Dew Point 15 °F    
Average Humidity 72    
Maximum Humidity 79    
Minimum Humidity 60    
Precipitation  
Precipitation 0.00 in 0.05 in 0.97 in (1983)
Month to date precipitation 0.30  
Year to date precipitation 1.97  
Snow  
Snow 0.00 in 0.40 in 7.00 in (1900)
Month to date snowfall 2.5  
Since 1 July snowfall 44.2  
Snow Depth -    
Sea Level Pressure  
Sea Level Pressure 30.09 in    
Wind  
Wind Speed 7 mph (SSE)    
Max Wind Speed 16 mph    
Max Gust Speed 23 mph    
Visibility 10 miles    
Events Snow    
T = Trace of Precipitation, MM = Missing Value Source: NWS Daily Summary

Daily Weather History Graph

Daily Weather History Graph

Search for Another Location

Airport or City:

Trip Planner

Search our weather history database for the weather conditions in past years. The results will help you decide how hot, cold, wet, or windy it might be!

Date:

Astronomy

Mar. 06, 2014 Rise Set
Actual Time 6:40 AM CST 6:06 PM CST
Civil Twilight 6:11 AM CST 6:35 PM CST
Nautical Twilight 5:37 AM CST 7:09 PM CST
Astronomical Twilight 5:03 AM CST 7:43 PM CST
Moon 9:34 AM CST (3/6) No Moon Set
Length of Visible Light 12h 24m
Length of Day
11h 25m
Waxing Crescent, 32% of the Moon is Illuminated
Mar 6
Waxing Crescent
Mar 8
First Quarter
Mar 16
Full
Mar 23
Last Quarter
Mar 30
New

Hourly Weather History & Observations

Time (CST) Temp. Windchill Dew Point Humidity Pressure Visibility Wind Dir Wind Speed Gust Speed Precip Events Conditions
12:12 AM 16.7 °F 8.3 °F 4.8 °F 60% 30.35 in 10.0 mi SSE 5.8 mph - N/A   Clear
12:32 AM 16.5 °F 9.4 °F 4.8 °F 60% 30.35 in 10.0 mi SSE 4.6 mph - N/A   Clear
12:52 AM 16.2 °F 7.6 °F 5.0 °F 62% 30.35 in 10.0 mi SSE 5.8 mph - N/A   Clear
1:12 AM 15.8 °F 7.2 °F 5.2 °F 63% 30.33 in 10.0 mi SSE 5.8 mph - N/A   Clear
1:31 AM 15.4 °F 8.1 °F 5.7 °F 65% 30.32 in 10.0 mi SSE 4.6 mph - N/A   Clear
1:52 AM 14.9 °F 6.1 °F 5.9 °F 68% 30.32 in 10.0 mi SSE 5.8 mph - N/A   Clear
2:12 AM 14.9 °F 9.2 °F 5.9 °F 68% 30.32 in 10.0 mi SSE 3.5 mph - N/A   Clear
2:32 AM 14.4 °F 8.6 °F 5.7 °F 69% 30.32 in 10.0 mi SSE 3.5 mph - N/A   Clear
2:52 AM 14.0 °F 6.5 °F 5.7 °F 70% 30.32 in 10.0 mi SSE 4.6 mph - N/A   Clear
3:12 AM 13.8 °F 2.7 °F 5.9 °F 71% 30.30 in 10.0 mi SSE 8.1 mph - N/A   Clear
3:32 AM 13.8 °F 4.9 °F 5.9 °F 71% 30.30 in 10.0 mi SSE 5.8 mph - N/A   Clear
3:52 AM 14.0 °F 3.9 °F 6.4 °F 72% 30.29 in 10.0 mi SSE 6.9 mph - N/A   Mostly Cloudy
4:12 AM 14.2 °F 4.1 °F 6.4 °F 71% 30.28 in 10.0 mi SSE 6.9 mph - N/A   Overcast
4:32 AM 14.5 °F 5.7 °F 6.4 °F 70% 30.28 in 10.0 mi SSE 5.8 mph - N/A   Overcast
4:52 AM 14.9 °F 6.1 °F 6.6 °F 70% 30.27 in 10.0 mi SE 5.8 mph - N/A   Overcast
5:12 AM 14.9 °F 6.1 °F 6.8 °F 70% 30.27 in 10.0 mi SSE 5.8 mph - N/A   Overcast
5:32 AM 14.9 °F 5.0 °F 6.8 °F 70% 30.26 in 10.0 mi SSE 6.9 mph - N/A   Overcast
5:52 AM 14.9 °F 4.0 °F 7.2 °F 71% 30.24 in 10.0 mi SSE 8.1 mph - N/A   Overcast
6:12 AM 15.6 °F 5.9 °F 7.7 °F 71% 30.23 in 10.0 mi SE 6.9 mph - N/A   Overcast
6:32 AM 16.0 °F 5.3 °F 7.9 °F 70% 30.22 in 10.0 mi SSE 8.1 mph - N/A   Scattered Clouds
6:52 AM 16.5 °F 6.0 °F 8.6 °F 71% 30.20 in 10.0 mi SSE 8.1 mph - N/A   Clear
7:12 AM 17.6 °F 8.2 °F 9.7 °F 71% 30.19 in 10.0 mi SSE 6.9 mph - N/A   Clear
7:32 AM 18.3 °F 9.1 °F 10.6 °F 72% 30.19 in 10.0 mi SSE 6.9 mph - N/A   Clear
7:52 AM 19.2 °F 7.7 °F 11.3 °F 71% 30.17 in 10.0 mi SSE 10.4 mph - N/A   Clear
8:11 AM 19.9 °F 9.3 °F 12.0 °F 71% 30.17 in 10.0 mi SSE 9.2 mph - N/A   Clear
8:32 AM 20.3 °F 12.5 °F 12.2 °F 71% 30.17 in 10.0 mi SSE 5.8 mph - N/A   Clear
8:52 AM 21.0 °F 11.4 °F 12.7 °F 70% 30.17 in 10.0 mi South 8.1 mph - N/A   Clear
9:12 AM 21.7 °F 12.3 °F 13.5 °F 70% 30.17 in 10.0 mi SSE 8.1 mph - N/A   Clear
9:32 AM 22.8 °F 13.6 °F 14.5 °F 71% 30.17 in 10.0 mi South 8.1 mph 17.3 mph N/A   Clear
9:52 AM 23.5 °F 13.0 °F 14.9 °F 70% 30.17 in 10.0 mi SSE 10.4 mph 16.1 mph N/A   Clear
10:12 AM 24.4 °F 13.0 °F 15.8 °F 70% 30.15 in 10.0 mi SSE 12.7 mph 17.3 mph N/A   Clear
10:32 AM 24.1 °F 14.4 °F 15.6 °F 70% 30.15 in 10.0 mi SSE 9.2 mph 16.1 mph N/A   Clear
10:52 AM 24.6 °F 13.8 °F 16.2 °F 70% 30.13 in 10.0 mi South 11.5 mph 19.6 mph N/A   Clear
11:12 AM 24.8 °F 12.4 °F 16.5 °F 71% 30.11 in 10.0 mi SSE 15.0 mph 21.9 mph N/A   Scattered Clouds
11:32 AM 25.5 °F 15.5 °F 17.2 °F 71% 30.11 in 10.0 mi SSE 10.4 mph - N/A   Scattered Clouds
11:52 AM 26.2 °F 15.8 °F 17.6 °F 70% 30.10 in 10.0 mi SSE 11.5 mph 16.1 mph N/A   Clear
12:12 PM 26.6 °F 18.2 °F 18.0 °F 70% 30.08 in 7.0 mi SE 8.1 mph 19.6 mph N/A Snow Light Snow
12:32 PM 27.3 °F 17.1 °F 18.5 °F 69% 30.07 in 10.0 mi SSE 11.5 mph 17.3 mph N/A   Scattered Clouds
12:52 PM 27.5 °F 15.9 °F 18.9 °F 70% 30.05 in 10.0 mi SSE 15.0 mph 19.6 mph N/A   Mostly Cloudy
1:12 PM 27.5 °F 17.4 °F 18.9 °F 70% 30.04 in 10.0 mi SSE 11.5 mph 19.6 mph N/A   Mostly Cloudy
1:32 PM 28.4 °F 19.1 °F 19.8 °F 70% 30.02 in 10.0 mi SSE 10.4 mph 19.6 mph N/A   Mostly Cloudy
1:52 PM 28.9 °F 20.4 °F 20.5 °F 71% 30.02 in 10.0 mi SE 9.2 mph 18.4 mph N/A   Scattered Clouds
2:12 PM 29.1 °F 18.9 °F 20.8 °F 71% 30.02 in 10.0 mi SSE 12.7 mph 18.4 mph N/A   Scattered Clouds
2:32 PM 29.8 °F 20.9 °F 21.2 °F 70% 30.01 in 10.0 mi SSE 10.4 mph - N/A   Scattered Clouds
2:52 PM 30.0 °F 19.1 °F 21.9 °F 72% 29.99 in 10.0 mi SSE 15.0 mph 20.7 mph N/A   Scattered Clouds
3:12 PM 30.0 °F 18.7 °F 21.9 °F 72% 29.98 in 10.0 mi SSE 16.1 mph 20.7 mph N/A   Scattered Clouds
3:32 PM 29.7 °F 19.6 °F 21.6 °F 72% 29.97 in 10.0 mi SSE 12.7 mph 18.4 mph N/A   Scattered Clouds
3:52 PM 29.8 °F 20.3 °F 22.3 °F 73% 29.96 in 10.0 mi SSE 11.5 mph 23.0 mph N/A   Scattered Clouds
4:12 PM 29.8 °F 18.4 °F 22.6 °F 75% 29.94 in 7.0 mi SSE 16.1 mph 23.0 mph N/A   Scattered Clouds
4:32 PM 30.0 °F 22.4 °F 22.8 °F 75% 29.93 in 7.0 mi SSE 8.1 mph 18.4 mph N/A   Scattered Clouds
4:52 PM 29.8 °F 19.8 °F 22.5 °F 74% 29.93 in 7.0 mi SSE 12.7 mph 18.4 mph N/A   Scattered Clouds
5:12 PM 29.5 °F 21.8 °F 22.1 °F 74% 29.93 in 7.0 mi South 8.1 mph - N/A   Clear
5:32 PM 29.3 °F 21.5 °F 22.1 °F 75% 29.94 in 7.0 mi South 8.1 mph - N/A   Clear
5:52 PM 28.8 °F 22.6 °F 21.7 °F 75% 29.94 in 7.0 mi South 5.8 mph - N/A   Clear
6:12 PM 28.2 °F 23.1 °F 21.2 °F 75% 29.93 in 10.0 mi SSE 4.6 mph - N/A   Clear
6:32 PM 27.9 °F 19.8 °F 20.8 °F 75% 29.92 in 10.0 mi SSE 8.1 mph 17.3 mph N/A   Clear
6:52 PM 27.3 °F 19.9 °F 20.3 °F 75% 29.92 in 10.0 mi SSE 6.9 mph - N/A   Clear
7:12 PM 27.0 °F 18.0 °F 20.1 °F 75% 29.93 in 10.0 mi SSE 9.2 mph - N/A   Clear
7:32 PM 26.6 °F 17.5 °F 19.8 °F 75% 29.92 in 10.0 mi SSE 9.2 mph - N/A   Clear
7:52 PM 26.4 °F 17.3 °F 19.4 °F 75% 29.90 in 10.0 mi SSE 9.2 mph - N/A   Clear
8:12 PM 25.7 °F 18.0 °F 19.2 °F 76% 29.90 in 10.0 mi SSE 6.9 mph - N/A   Clear
8:32 PM 25.3 °F 19.7 °F 19.0 °F 77% 29.90 in 10.0 mi SSE 4.6 mph - N/A   Clear
8:52 PM 25.2 °F 17.3 °F 18.9 °F 77% 29.88 in 10.0 mi SSE 6.9 mph - N/A   Clear
9:12 PM 24.6 °F 17.7 °F 18.5 °F 78% 29.88 in 10.0 mi SSE 5.8 mph - N/A   Clear
9:32 PM 24.6 °F 17.7 °F 18.5 °F 78% 29.88 in 10.0 mi SSE 5.8 mph - N/A   Clear
9:52 PM 24.4 °F 20.1 °F 18.3 °F 78% 29.87 in 10.0 mi SSE 3.5 mph - N/A   Clear
10:12 PM 24.4 °F 20.1 °F 18.5 °F 78% 29.87 in 10.0 mi SSE 3.5 mph - N/A   Clear
10:32 PM 24.4 °F 18.6 °F 18.5 °F 78% 29.86 in 10.0 mi SSE 4.6 mph - N/A   Clear
10:52 PM 24.4 °F 20.1 °F 18.5 °F 78% 29.84 in 7.0 mi SE 3.5 mph - N/A   Clear
11:12 PM 25.2 °F 19.5 °F 19.2 °F 78% 29.84 in 7.0 mi SSE 4.6 mph - N/A   Clear
11:32 PM 25.7 °F 19.0 °F 19.9 °F 79% 29.84 in 7.0 mi SSE 5.8 mph - N/A   Clear
11:51 PM 26.6 °F 19.1 °F 20.5 °F 78% 29.83 in 7.0 mi SSE 6.9 mph - N/A   Clear